Location: Chexbres
(46.4818°N, 6.7763°E)
Time: 02:03:17
(UTC+00:00)

Daily predictions for brighter satellites

Satellite Brightness Start Highest point End
(mag) Time Altitude Azimuth Time Altitude Azimuth Time Altitude Azimuth
CENTAUR R/B 4.4 02:14:21 34° E 02:14:21 34° E 02:19:29 10° ESE
Cosmos 2263 Rocket 4.1 03:01:27 25° ENE 03:01:27 25° ENE 03:04:11 10° NE
SJ 16-02 4.3 03:08:47 13° ENE 03:08:47 13° ENE 03:09:49 10° ENE
CZ-4C R/B 4.3 03:25:49 15° SE 03:27:59 20° ESE 03:31:52 10° ENE
BREEZE-M DEB (TANK) 4.5 03:30:33 76° NNE 03:30:33 76° NNE 03:35:00 10° E
ATLAS 3B R/B 3.6 03:30:35 37° N 03:31:58 41° NE 03:38:38 10° ESE
Cosmos 1943 4.3 03:36:00 39° SE 03:36:00 39° SE 03:39:30 10° SSE
Lacrosse 4 Rocket 3.8 03:38:11 21° ESE 03:38:11 21° ESE 03:39:48 10° SE
ALOS 3.3 03:49:52 10° NNE 03:53:16 41° NE 03:53:16 41° NE
NOSS 3-2 (C) 4.0 04:00:07 61° WSW 04:00:17 61° WSW 04:08:40 10° SSE
NOSS 3-4 (A) 3.3 04:00:50 72° S 04:01:22 79° SE 04:07:40 10° NE
NOSS 3-4 (C) 3.3 04:00:54 71° S 04:01:29 78° SE 04:07:48 10° NE
CENTAUR R/B 3.1 04:01:36 60° W 04:02:16 61° WSW 04:10:56 10° SSE
ARGOS Delta rocket 4.3 04:00:23 10° NNE 04:04:43 60° NE 04:04:43 60° NE
Cosmos 158 Rocket 4.0 04:10:38 68° NE 04:10:52 69° ENE 04:15:49 10° SSE
SL-4 R/B 3.6 04:15:02 27° NE 04:15:02 27° NE 04:17:03 10° ENE
Cosmos 1151 Rocket 3.9 04:17:01 42° SSE 04:17:01 42° SSE 04:19:56 10° SSE
Cosmos 1782 3.7 04:16:34 44° NE 04:17:04 47° ENE 04:20:58 10° SSE
SKYMED 2 4.5 04:13:19 10° SE 04:17:29 47° ENE 04:19:24 28° NNE
Cosmos 1844 Rocket 4.3 04:12:30 10° SSE 04:17:29 33° ESE 04:22:32 10° NE
ATLAS 2AS CENTAUR R/B 3.0 04:15:30 23° SSW 04:20:58 85° SE 04:28:52 10° NE
ERS-2 4.3 04:18:11 10° SSE 04:19:17 19° SSE 04:19:17 19° SSE
Cosmos 1680 Rocket 3.7 04:20:03 37° N 04:22:07 68° ENE 04:27:24 10° SSE
ATLAS 5 CENTAUR R/B 3.8 04:31:19 18° NNE 04:31:19 18° NNE 04:32:09 10° NNE
Atlas Centaur 2 4.4 04:26:41 13° SSW 04:29:18 17° S 04:32:49 10° SE
RESURS DK-1 3.5 04:27:39 10° S 04:31:35 43° ESE 04:35:32 10° NE
CRYOSAT 2 4.4 04:27:38 10° SSE 04:32:28 76° E 04:37:21 10° N
ATLAS CENTAUR R/B 2.0 04:32:06 42° NNE 04:32:29 43° NE 04:36:13 10° ESE
Lacrosse 5 1.8 04:32:02 59° SW 04:33:01 88° SE 04:38:07 10° NE
ADEOS 3.4 04:29:03 10° NNE 04:34:18 80° WNW 04:39:31 10° SSW
Cosmos 1328 Rocket 3.4 04:35:40 77° W 04:35:41 77° W 04:40:05 10° S
Cosmos 2112 Rocket 4.0 04:38:53 27° NNW 04:41:54 85° ENE 04:47:15 10° SSE
Cosmos 2263 Rocket 2.6 04:43:11 40° NW 04:43:11 40° NW 04:48:18 10° NNE
Gbstr 26 Del rocket 2.5 04:43:34 82° SSW 04:43:34 82° SSW 04:47:24 10° ESE
SJ 16-02 1.6 04:45:52 48° NNW 04:45:52 48° NNW 04:49:33 10° NNE
Cosmos 1898 Rocket 3.6 04:47:22 10° SSW 04:52:41 78° ESE 04:58:02 10° NNE
Meteor 1-26 Rocket 4.2 04:48:59 18° NNW 04:53:17 57° W 04:58:44 10° S
FALCON 9 DEB 2.8 04:56:35 86° NE 04:56:35 86° NE 04:59:46 10° ENE
FALCON 9 DEB 2.8 04:56:45 81° NNE 04:56:45 81° NNE 04:59:53 10° ENE
FENGYUN 3A 3.9 04:53:58 10° N 04:59:05 45° WNW 05:04:11 10° SW
Cosmos 1743 Rocket 3.9 04:55:45 10° S 05:00:09 67° E 05:04:37 10° NNE
Cosmos 1408 Rocket 3.5 04:57:45 10° SSW 05:02:10 63° W 05:06:36 10° N
Cosmos 2181 Rocket 4.1 04:58:26 10° NNW 05:04:23 49° W 05:10:13 10° SSW
COSMO-SKYMED 1 2.6 05:01:14 10° S 05:05:30 56° W 05:08:00 24° NNW
USA 307 4.1 05:05:08 26° NNW 05:06:27 31° N 05:10:19 10° ENE
Cosmos 1709 Rocket 4.5 05:01:14 10° SW 05:07:04 37° WNW 05:12:57 10° N
Cosmos 1937 Rocket 3.5 05:04:37 10° SSW 05:09:45 80° ESE 05:14:59 10° NNE
USA 308 4.1 05:11:14 24° NNW 05:12:51 31° N 05:16:43 10° ENE
Lacrosse 4 Rocket 2.9 05:14:32 21° WSW 05:14:32 21° WSW 05:17:20 10° SSW
Meteor 2-3 Rocket 4.1 05:08:57 10° SW 05:14:20 41° WNW 05:19:48 10° N
Cosmos 1833 Rocket 4.4 05:09:38 10° N 05:14:27 28° NE 05:19:14 10° ESE
CZ-4C R/B 2.0 05:11:06 13° SW 05:15:38 69° NW 05:21:41 10° NE
MOS 1 Rocket 3.5 05:11:04 10° SSE 05:15:52 78° ENE 05:21:02 10° N
Cosmos 2154 Rocket 4.2 05:09:48 10° S 05:15:59 74° E 05:22:15 10° NNE
CZ-4B R/B 3.1 05:13:21 10° N 05:17:49 61° WNW 05:22:09 10° SSW
Cosmos 1689 Rocket 2.6 05:15:49 10° S 05:18:11 37° WSW 05:18:11 37° WSW
Meteor 1-27 Rocket 4.5 05:13:09 10° N 05:18:49 56° ENE 05:24:34 10° SSE
Cosmos 1805 Rocket 4.4 05:15:04 10° S 05:19:22 53° E 05:23:43 10° NNE
FALCON 9 DEB 2.9 05:18:33 41° W 05:19:24 61° NNW 05:22:36 10° NE
Meteor 1-10 Rocket 4.2 05:15:17 10° N 05:20:53 89° E 05:26:30 10° S
SAR-Lupe-4 4.3 05:19:13 10° SSW 05:22:23 30° W 05:22:38 30° W
ATLAS 3B R/B 2.9 05:17:51 19° NW 05:22:59 59° WSW 05:30:02 10° SSE
Aureole 2 Rocket 2.3 05:21:13 10° S 05:23:42 56° ESE 05:26:13 10° NNE
COSMOS 2406 4.5 05:19:20 10° NNW 05:24:43 39° NE 05:30:04 10° ESE
Cosmos 1862 3.2 05:22:52 10° SSW 05:26:55 74° W 05:30:59 10° N
Genesis I 3.1 05:24:54 12° SW 05:28:20 58° NW 05:32:10 10° NNE
YAOGAN 6 3.0 05:25:04 10° NNE 05:28:33 61° E 05:32:00 10° S
deb Chang Zheng 4 4.4 05:27:42 10° N 05:31:27 29° WNW 05:35:12 10° SW
ALOS 3.4 05:28:03 10° NNW 05:31:30 21° WNW 05:31:45 21° WNW
Cosmos 858 Rocket 4.4 05:28:54 10° SSW 05:34:05 67° WNW 05:39:21 10° NNE
Cosmos 2327 Rocket 4.4 05:29:18 10° SSW 05:35:25 79° W 05:41:32 10° N
Cosmos 990 Rocket 4.3 05:30:33 10° SW 05:35:30 42° WNW 05:40:32 10° N
Cosmos 2074 Rocket 4.1 05:30:51 10° SSW 05:36:53 52° WNW 05:42:57 10° N
PSLV R/B 3.6 05:33:30 10° N 05:37:24 80° WNW 05:41:10 10° SSW
ASTRO F (AKARI) 4.3 05:36:18 10° N 05:39:20 52° WNW 05:42:24 10° SSW
Meteor 1-31 Rocket 4.3 05:38:32 10° NNW 05:40:29 17° NW 05:40:29 17° NW
USA 305 3.9 05:38:55 16° NW 05:41:51 36° NNE 05:45:52 10° E
BREEZE M DEB (TANK) 3.3 05:34:31 10° SW 05:42:06 55° SSE 05:44:51 10° ENE
Cosmos 405 Rocket 2.7 05:39:10 10° SSW 05:42:46 52° WNW 05:46:28 10° N
SL-24 DEB 4.3 05:38:13 10° S 05:43:00 87° W 05:47:49 10° N
EO 1 Delta rocket 4.2 05:41:59 10° S 05:46:50 45° W 05:51:17 10° NNW
Cosmos 1812 3.1 05:43:38 10° NNW 05:47:16 41° W 05:50:53 10° SSW
Cosmos 1295 Rocket 4.4 05:42:17 10° SSW 05:48:22 79° W 05:54:29 10° N
Cosmos 2228 Rocket 3.4 05:45:34 10° NNW 05:49:48 45° W 05:53:58 10° SSW
USA 306 3.8 05:47:01 14° NW 05:50:20 38° NNE 05:54:23 10° E
Cosmos 1633 Rocket 4.2 05:48:42 10° SSE 05:52:56 47° E 05:57:11 10° NNE
NOSS 3-4 (A) 4.3 05:48:19 13° W 05:52:57 30° NNW 05:58:36 10° NNE
Cosmos 1782 4.4 05:52:15 15° WNW 05:52:58 15° W 05:55:19 10° WSW
NOSS 3-4 (C) 4.3 05:48:24 13° W 05:53:04 30° NNW 05:58:44 10° NNE
SL-4 R/B 2.5 05:50:37 15° WNW 05:53:30 40° N 05:56:57 10° E
Cosmos 2184 Rocket 4.4 05:48:35 10° SW 05:54:31 41° WNW 06:00:32 10° N
USA 234 3.6 05:51:40 10° NE 05:58:12 71° SE 06:04:44 10° SW
Cosmos 1356 3.7 05:55:02 10° S 05:58:25 71° E 06:01:50 10° NNE
FALCON 9 DEB 3.7 05:56:58 14° W 05:59:23 35° NNW 06:02:22 10° NE
Cosmos 1844 Rocket 3.0 05:55:54 10° SW 06:01:15 43° NW 06:06:41 10° NNE
FALCON 9 DEB 4.1 05:59:52 12° NW 06:02:50 37° NNE 06:06:06 10° E
Cosmos 1707 Rocket 3.5 06:02:32 10° NNW 06:06:54 78° W 06:11:12 10° S
EXPRESS MD2 4.2 06:03:36 11° WNW 06:07:26 87° SSW 06:15:48 10° ESE
MOS 1-B 4.3 06:02:50 10° NNE 06:08:39 71° WNW 06:14:24 10° SSW
COSMOS 2455 2.8 06:03:19 10° SW 06:09:22 77° NW 06:15:26 10° NNE
RESURS DK-1 3.5 06:06:27 10° WSW 06:09:48 23° NW 06:13:09 10° N
BREEZE-M (TANK) 4.0 06:04:09 10° SW 06:10:45 41° SSE 06:13:17 10° E
ATLAS CENTAUR R/B 2.7 06:08:18 10° WNW 06:11:07 20° WSW 06:14:04 10° SSW
BREEZE-M DEB 4.2 06:03:08 10° WNW 06:11:36 38° SW 06:14:35 10° SSE
NOAA 6 4.1 06:06:44 10° N 06:11:46 57° WNW 06:16:45 10° SSW
ATLAS 2AS CENTAUR R/B 3.6 06:05:38 10° W 06:12:50 36° NNW 06:19:52 10° NNE
ERBS 4.5 06:11:46 10° NNW 06:13:30 13° N 06:15:14 10° NNE
H-2A R/B 3.8 06:11:06 10° NNW 06:14:18 24° WNW 06:17:28 10° WSW
Cosmos 1844 4.0 06:09:57 10° SW 06:15:11 41° NW 06:20:29 10° NNE
Lacrosse 5 2.7 06:11:57 10° W 06:16:31 32° NNW 06:21:04 10° NE
CZ-4B DEB 4.3 06:11:35 10° N 06:16:54 53° WNW 06:22:11 10° SW
Atlas Centaur 2 4.4 06:14:50 10° SW 06:17:12 13° SSW 06:19:22 10° S
Cosmos 1437 Rocket 3.5 06:14:02 10° NNW 06:17:23 30° W 06:20:43 10° SSW
Cosmos 372 Rocket 4.1 06:13:33 10° SW 06:18:32 53° WNW 06:23:32 10° NNE
Okean O Rocket 1.6 06:16:06 10° N 06:20:33 75° WNW 06:25:00 10° SSW
Geosat 4.1 06:16:35 10° SSE 06:21:37 87° NE 06:26:40 10° NNW
